Volver al catálogo

STARLINK-11141

ActivoComunicacionesVLEO
NORAD 60066·PAYLOAD·🇺🇸 United States

Lanzado Jun 19, 2024 desde Vandenberg Space Force Base

Loading…

Próximos Pases (próximas 24 horas)

TLE

ActualizadoSource: CelesTrak SupGP

Época: Sep 15, 2026, 02:10 UTC

1 60066C 24113H   26258.09076389  .00021215  00000+0  17477-3 0  2581
2 60066  53.1568 337.2643 0001084  95.7192 220.6133 15.69697227    14

Sigue STARLINK-11141 en tiempo real con AllMySat

Download on the App Store